SB KEPS @ AMSAT $ORB11069.O Orbital Elements 11069.OSCAR
HR AMSAT ORBITAL ELEMENTS FOR OSCAR SATELLITES FROM WA5QGD FORT WORTH,TX March 10, 2011 Send Subscribe/unsubscribe to KEPS at http://www.amsat.org/mailman/listinfo/keps BID: ORB11069.O TO ALL RADIO AMATEURS BT
Satellite: AO-07 Catalog number: 07530 Epoch time: 11068.47839310 Element set: 0024 Inclination: 101.3950 deg RA of node: 078.9504 deg Eccentricity: 0.0012110 Arg of perigee: 114.6820 deg Mean anomaly: 245.5518 deg Mean motion: 12.53581536 rev/day Decay rate: -2.7e-07 rev/day^2 Epoch rev: 66169 Checksum: 276
Satellite: FO-29 Catalog number: 24278 Epoch time: 11068.44349297 Element set: 0546 Inclination: 098.5297 deg RA of node: 226.0861 deg Eccentricity: 0.0350924 Arg of perigee: 155.6897 deg Mean anomaly: 206.1253 deg Mean motion: 13.52958089 rev/day Decay rate: -3.3e-07 rev/day^2 Epoch rev: 71897 Checksum: 355
Satellite: SO-33 Catalog number: 25509 Epoch time: 11068.43235758 Element set: 0922 Inclination: 031.4306 deg RA of node: 088.4953 deg Eccentricity: 0.0353277 Arg of perigee: 089.3148 deg Mean anomaly: 274.7946 deg Mean motion: 14.28371925 rev/day Decay rate: 1.77e-06 rev/day^2 Epoch rev: 64600 Checksum: 329
Satellite: RS-22 Catalog number: 27939 Epoch time: 11069.63703509 Element set: 61 Inclination: 097.8579 deg RA of node: 288.2772 deg Eccentricity: 0.0012619 Arg of perigee: 299.8771 deg Mean anomaly: 060.1183 deg Mean motion: 14.63522988 rev/day Decay rate: 3.23e-06 rev/day^2 Epoch rev: 39792 Checksum: 349
Satellite: VO-52 Catalog number: 28650 Epoch time: 11068.64235638 Element set: 0738 Inclination: 097.6540 deg RA of node: 116.1743 deg Eccentricity: 0.0027963 Arg of perigee: 126.2366 deg Mean anomaly: 234.1464 deg Mean motion: 14.81933760 rev/day Decay rate: 1.017e-05 rev/day^2 Epoch rev: 31600 Checksum: 300
Satellite: SO-67 Catalog number: 35870 Epoch time: 11069.20119816 Element set: 632 Inclination: 097.2949 deg RA of node: 115.7640 deg Eccentricity: 0.0001521 Arg of perigee: 230.3037 deg Mean anomaly: 200.6090 deg Mean motion: 15.21413637 rev/day Decay rate: 2.077e-05 rev/day^2 Epoch rev: 8189 Checksum: 284
Satellite: HO-68 Catalog number: 36122 Epoch time: 11069.04836659 Element set: 180 Inclination: 100.4279 deg RA of node: 131.3180 deg Eccentricity: 0.0008115 Arg of perigee: 091.0009 deg Mean anomaly: 269.2042 deg Mean motion: 13.16284444 rev/day Decay rate: -4.4e-07 rev/day^2 Epoch rev: 5919 Checksum: 275
/EX SB KEPS @ AMSAT $ORB11069.D Orbital Elements 11069.MICROS
HR AMSAT ORBITAL ELEMENTS FOR THE MICROSATS FROM WA5QGD FORT WORTH,TX March 10, 2011 Send Subscribe/unsubscribe to KEPS at http://www.amsat.org/mailman/listinfo/keps BID: ORB11069.D TO ALL RADIO AMATEURS BT
Satellite: UO-11 Catalog number: 14781 Epoch time: 11068.20985739 Element set: 0490 Inclination: 098.0161 deg RA of node: 125.1788 deg Eccentricity: 0.0010123 Arg of perigee: 100.6155 deg Mean anomaly: 259.6195 deg Mean motion: 14.79902664 rev/day Decay rate: 5.51e-06 rev/day^2 Epoch rev: 45100 Checksum: 293
Satellite: AO-16 Catalog number: 20439 Epoch time: 11068.44756833 Element set: 0138 Inclination: 098.3720 deg RA of node: 021.4597 deg Eccentricity: 0.0011864 Arg of perigee: 098.1803 deg Mean anomaly: 262.0730 deg Mean motion: 14.31899167 rev/day Decay rate: 6.4e-07 rev/day^2 Epoch rev: 10334 Checksum: 300
Satellite: LO-19 Catalog number: 20442 Epoch time: 11069.94008528 Element set: 46 Inclination: 098.3361 deg RA of node: 027.6352 deg Eccentricity: 0.0012867 Arg of perigee: 089.3584 deg Mean anomaly: 270.9073 deg Mean motion: 14.32126606 rev/day Decay rate: 4.7e-07 rev/day^2 Epoch rev: 10373 Checksum: 296
Satellite: AO-27 Catalog number: 22825 Epoch time: 11068.81709083 Element set: 0767 Inclination: 098.5207 deg RA of node: 015.3716 deg Eccentricity: 0.0007872 Arg of perigee: 203.2391 deg Mean anomaly: 156.8402 deg Mean motion: 14.29330275 rev/day Decay rate: 1.13e-06 rev/day^2 Epoch rev: 90999 Checksum: 311
Satellite: IO-26 Catalog number: 22826 Epoch time: 11068.41473862 Element set: 0506 Inclination: 098.5145 deg RA of node: 015.4856 deg Eccentricity: 0.0008496 Arg of perigee: 198.8407 deg Mean anomaly: 161.2462 deg Mean motion: 14.29589525 rev/day Decay rate: 4.3e-07 rev/day^2 Epoch rev: 91005 Checksum: 320
Satellite: GO-32 Catalog number: 25397 Epoch time: 11068.64271562 Element set: 424 Inclination: 098.3225 deg RA of node: 066.5528 deg Eccentricity: 0.0001165 Arg of perigee: 162.8269 deg Mean anomaly: 197.2935 deg Mean motion: 14.23198066 rev/day Decay rate: -5.5e-07 rev/day^2 Epoch rev: 65780 Checksum: 322
Satellite: NO-44 Catalog number: 26931 Epoch time: 11068.63087127 Element set: 0699 Inclination: 067.0496 deg RA of node: 240.0499 deg Eccentricity: 0.0007155 Arg of perigee: 271.2828 deg Mean anomaly: 088.7465 deg Mean motion: 14.29637628 rev/day Decay rate: 1.04e-06 rev/day^2 Epoch rev: 49269 Checksum: 342
Satellite: SO-50 Catalog number: 27607 Epoch time: 11068.85608549 Element set: 410 Inclination: 064.5573 deg RA of node: 269.4926 deg Eccentricity: 0.0061821 Arg of perigee: 344.2489 deg Mean anomaly: 015.6664 deg Mean motion: 14.71659178 rev/day Decay rate: 1.74e-06 rev/day^2 Epoch rev: 44147 Checksum: 332
Satellite: CO-55 Catalog number: 27844 Epoch time: 11068.88088326 Element set: 61 Inclination: 098.7086 deg RA of node: 079.0202 deg Eccentricity: 0.0010228 Arg of perigee: 121.5927 deg Mean anomaly: 238.6250 deg Mean motion: 14.20775266 rev/day Decay rate: 1.29e-06 rev/day^2 Epoch rev: 39881 Checksum: 316
Satellite: CO-57 Catalog number: 27848 Epoch time: 11068.59771423 Element set: 9 Inclination: 098.7141 deg RA of node: 077.8974 deg Eccentricity: 0.0010190 Arg of perigee: 127.4884 deg Mean anomaly: 232.7206 deg Mean motion: 14.20559288 rev/day Decay rate: 9.3e-07 rev/day^2 Epoch rev: 39872 Checksum: 339
Satellite: AO-51 Catalog number: 28375 Epoch time: 11068.65996697 Element set: 0915 Inclination: 098.0874 deg RA of node: 052.3908 deg Eccentricity: 0.0084873 Arg of perigee: 012.4090 deg Mean anomaly: 347.9168 deg Mean motion: 14.40729286 rev/day Decay rate: 7.3e-07 rev/day^2 Epoch rev: 35173 Checksum: 349
Satellite: CP3 Catalog number: 31129 Epoch time: 11068.60326822 Element set: 815 Inclination: 097.9098 deg RA of node: 098.5339 deg Eccentricity: 0.0103022 Arg of perigee: 129.9084 deg Mean anomaly: 231.1242 deg Mean motion: 14.52390776 rev/day Decay rate: 4.90e-06 rev/day^2 Epoch rev: 20638 Checksum: 298
Satellite: CO-65 Catalog number: 32785 Epoch time: 11069.90399412 Element set: 934 Inclination: 097.8595 deg RA of node: 135.6367 deg Eccentricity: 0.0015651 Arg of perigee: 133.6580 deg Mean anomaly: 226.5907 deg Mean motion: 14.81856460 rev/day Decay rate: 1.110e-05 rev/day^2 Epoch rev: 15498 Checksum: 337
Satellite: KKS-1 Catalog number: 33493 Epoch time: 11069.15122473 Element set: 380 Inclination: 098.1105 deg RA of node: 196.4243 deg Eccentricity: 0.0019903 Arg of perigee: 004.6005 deg Mean anomaly: 355.5411 deg Mean motion: 14.81374612 rev/day Decay rate: 1.443e-05 rev/day^2 Epoch rev: 11485 Checksum: 267
Satellite: SOHLA-1 Catalog number: 33496 Epoch time: 11068.77978970 Element set: 353 Inclination: 098.0700 deg RA of node: 179.6770 deg Eccentricity: 0.0007641 Arg of perigee: 080.0426 deg Mean anomaly: 280.1643 deg Mean motion: 14.69564633 rev/day Decay rate: 2.21e-06 rev/day^2 Epoch rev: 11388 Checksum: 313
Satellite: TISAT-1 Catalog number: 36799 Epoch time: 11069.79805214 Element set: 655 Inclination: 098.1128 deg RA of node: 137.0433 deg Eccentricity: 0.0014386 Arg of perigee: 232.4365 deg Mean anomaly: 127.5553 deg Mean motion: 14.80350683 rev/day Decay rate: 9.67e-06 rev/day^2 Epoch rev: 3575 Checksum: 319
Satellite: STUDSAT Catalog number: 36801 Epoch time: 11068.78798064 Element set: 0181 Inclination: 098.1147 deg RA of node: 135.8695 deg Eccentricity: 0.0013078 Arg of perigee: 224.7859 deg Mean anomaly: 135.2297 deg Mean motion: 14.80088698 rev/day Decay rate: 2.654e-05 rev/day^2 Epoch rev: 03559 Checksum: 344
Satellite: RAX Catalog number: 37223 Epoch time: 11047.27696737 Element set: 0084 Inclination: 071.9744 deg RA of node: 305.5778 deg Eccentricity: 0.0020243 Arg of perigee: 156.1195 deg Mean anomaly: 204.0952 deg Mean motion: 14.77236729 rev/day Decay rate: 2.10e-06 rev/day^2 Epoch rev: 01303 Checksum: 284
Satellite: OOREOS Catalog number: 37224 Epoch time: 11043.43618410 Element set: 0081 Inclination: 071.9758 deg RA of node: 314.1598 deg Eccentricity: 0.0019424 Arg of perigee: 162.0076 deg Mean anomaly: 198.1778 deg Mean motion: 14.76892599 rev/day Decay rate: 2.19e-06 rev/day^2 Epoch rev: 01245 Checksum: 307
Satellite: NANOSALD Catalog number: 37225 Epoch time: 11066.57088737 Element set: 0071 Inclination: 071.9766 deg RA of node: 262.9771 deg Eccentricity: 0.0028222 Arg of perigee: 073.6605 deg Mean anomaly: 286.7869 deg Mean motion: 14.80148112 rev/day Decay rate: 5.6508e-04 rev/day^2 Epoch rev: 00698 Checksum: 329
Satellite: FAST1-2 Catalog number: 37227 Epoch time: 11068.12753356 Element set: 0098 Inclination: 071.9704 deg RA of node: 259.8732 deg Eccentricity: 0.0015726 Arg of perigee: 108.8223 deg Mean anomaly: 251.4641 deg Mean motion: 14.76400491 rev/day Decay rate: 2.73e-06 rev/day^2 Epoch rev: 01609 Checksum: 295
/EX SB KEPS @ AMSAT $ORB11069.W Orbital Elements 11069.WEATHER
HR AMSAT ORBITAL ELEMENTS FOR WEATHER SATELLITES FROM WA5QGD FORT WORTH,TX March 10, 2011 Send Subscribe/unsubscribe to KEPS at http://www.amsat.org/mailman/listinfo/keps BID: ORB11069.W TO ALL RADIO AMATEURS BT
Satellite: NOAA-10 Catalog number: 16969 Epoch time: 11068.53540926 Element set: 0422 Inclination: 098.6289 deg RA of node: 099.6299 deg Eccentricity: 0.0012548 Arg of perigee: 153.0250 deg Mean anomaly: 207.1596 deg Mean motion: 14.27447101 rev/day Decay rate: 1.03e-06 rev/day^2 Epoch rev: 27343 Checksum: 306
